This is the latest recevied weather packets stored in our database for station/object N9DRW. If no packets are shown the sender has not sent any weather packets the latest 1 day(s).
| Time | Temp. | Humidity | Pressure | Rain* | Wind** | Luminosity | Snow |
|---|---|---|---|---|---|---|---|
| 1778053326 | 4.44° C | 61% | 0 hPa | 0 mm | - | - | - |
| 1778052126 | 4.44° C | 60% | 0 hPa | 0 mm | - | - | - |
| 1778051526 | 4.44° C | 61% | 0 hPa | 0 mm | - | - | - |
| 1778050926 | 4.44° C | 62% | 0 hPa | 0 mm | - | - | - |
| 1778049726 | 3.89° C | 65% | 0 hPa | 0 mm | - | - | - |
| 1778047326 | 4.44° C | 60% | 0 hPa | 0 mm | - | - | - |
| 1778046725 | 4.44° C | 59% | 0 hPa | 0 mm | - | - | - |
| 1778046126 | 4.44° C | 60% | 0 hPa | 0 mm | - | - | - |
| 1778045526 | 5° C | 58% | 0 hPa | 0 mm | - | - | - |
| 1778044926 | 5.56° C | 59% | 0 hPa | 0 mm | - | - | - |
| 1778043126 | 6.11° C | 55% | 0 hPa | 0 mm | - | - | - |
| 1778042526 | 6.11° C | 55% | 0 hPa | 0 mm | - | - | - |
| 1778041929 | 6.67° C | 53% | 0 hPa | 0 mm | - | - | - |
| 1778040126 | 6.67° C | 51% | 0 hPa | 0 mm | - | - | - |
| 1778039526 | 7.22° C | 53% | 0 hPa | 0 mm | - | - | - |
| 1778038926 | 7.78° C | 52% | 0 hPa | 0 mm | - | - | - |
| 1778038326 | 7.78° C | 48% | 0 hPa | 0 mm | - | - | - |
| 1778035326 | 8.89° C | 44% | 0 hPa | 0 mm | - | - | - |
| 1778034726 | 9.44° C | 44% | 0 hPa | 0 mm | - | - | - |
| 1778031726 | 10° C | 41% | 0 hPa | 0 mm | - | - | - |
| 1778031126 | 10° C | 40% | 0 hPa | 0 mm | - | - | - |
| 1778030526 | 10.56° C | 40% | 0 hPa | 0 mm | - | - | - |
| 1778029926 | 10.56° C | 39% | 0 hPa | 0 mm | - | - | - |
| 1778029326 | 10.56° C | 38% | 0 hPa | 0 mm | - | - | - |
| 1778026927 | 11.67° C | 36% | 0 hPa | 0 mm | - | - | - |
* Rain latest hour (hover to see other rain measurements)
** Current wind speed in m/s (hover to see current wind gust speed)